Погода Туапсе

Погода Туапсе : погода сейчас, прогноз погоды и архив. Всё, что Вы хотите узнать о погоде Туапсе!

Хотите узнать прогноз погоды Туапсе? Тогда Вам сюда: Погода Туапсе

Поиск расширенной информации на нашем сайте:

Другие новости

Новости СМИ2

Главная страница сайта

Новости сайта

03.07.2017

Напоминаем, что на нашем специализированном сайте Метеоцентр.Азия вы можете получить высокодетализированные автоматические прогнозы погоды по пунктам России, СНГ и мира в авиационном формате (включающие направление и скорость ветра, видимость, явления погоды, количество и форму облачности, нижнюю и верхнюю границу облачности).


Погода Туапсе - сегодня

Время (UTC), дата Ветер
(°,м/с) 
Видим.   Явления Облачность Т
(°С)
Тd
(°С)
f(%) Тe
(°С)
Pmin
(гПа)
dP
(гПа)
Po
(мм)
O2
(г/м3)
Тmin Tmax R s Состояние
почвы
12 08.12.17 130 (ЮВ) 10 км  слаб. ливневой дождь  10/10 600 м кучево-дожд. 
[Cb cap]
+7.7 +4.7 81 +8  1021.5  760  297           
15 08.12.17 120 (ЮВ) 4000 м  слаб. ливневой дождь  10/10 600 м кучево-дожд. 
[Cb cap]
+7.9 +5.2 83 +7  1022.1  0.6  761  297    +8.3     
18 08.12.17 130 (ЮВ) 6-10{11}  10 км  в посл. час ливневой дождь  10/10 600 м кучево-дожд. 
[Cb cap]
+8.5 +4.7 77 +7  1023  0.9  762  297           
21 08.12.17 130 (ЮВ) 4{11}  10 км  в посл. час ливневой дождь  10/10 600 м кучево-дожд. 
[Cb cap]
+8.9 +5.6 80 +8  1023.6  0.6  762  296           
00 09.12.17 120 (ЮВ) 4{10}  10 км  {ливн. осадки}  8/8 1000 м кучево-дожд. 
[Cb cap]
+9.1 +5.6 79 +8  1023.6  762  296           
03 09.12.17 120 (ЮВ) 10 км    3/0 верхняя 
[Ci sp]
+9.2 +4.9 74 +8  1023.3  -0.3  762  296  +7.9    0.6     
06 09.12.17 140 (ЮВ) 20000 м    8/3 1000 м средняя, верхняя 
[Sc|Ac trans|Ci fib]
+10 +4.1 67 +9  1023.3  762  295           
09 09.12.17 140 (ЮВ) 5-11{11}  20000 м    6/3 1000 м верхняя 
[Sc|Ci fib]
+11.4 +5.8 68 +10  1022.7  -0.5  761  294           
12 09.12.17 150 (ЮВ) 4{11}  20000 м    3/3 1000 м 
[Cu Sc]
+11.7 +6.4 70 +11  1021.5  -1.2  761  293           
15 09.12.17 150 (ЮВ) 10 км    8/8 1000 м 
[Cu Sc]
+10.8 +6.4 74 +10  1021.3  -0.2  760  294    +11.8       
18 09.12.17 110 (В) 10 км    9/5 1000 м верхняя 
[Cu Sc|Ci sp]
+9.8 +4.6 70 +9  1020.7  -0.6  760  295           
21 09.12.17 110 (В) 10 км    8/3 1000 м верхняя 
[Cu med, cong|Ci sp]
+9.9 +3.3 63 +11  1020  -0.8  759  295           
00 10.12.17 130 (ЮВ) 10 км    8/3 1000 м верхняя 
[Cu med, cong|Ci sp]
+11.2 +2.4 55 +11  1019.8  0.1  759  294           
03 10.12.17 130 (ЮВ) 10 км    3/3 1000 м 
[Cu med, cong]
+12.2 +1.9 49 +12  1018  -1.8  758  292  +9.5         
06 10.12.17 140 (ЮВ) 5-10{12}  20000 м    1/0 средняя 
[Ac lent]
+12.3 +2.8 52 +11  1018.3  0.3  758  292           
09 10.12.17 130 (ЮВ) 7-13{13}  20000 м    ясно 
+12.9 +6.1 63 +12  1017.2  -1.1  757  290           
12 10.12.17 130 (ЮВ) 7-12{13}  20000 м    3/0 верхняя 
[Ci fib]
+12.9 +6 63 +12  1015.4  -1.7  756  290           
15 10.12.17 120 (ЮВ) 5{14}  10 км    4/3 1000 м верхняя 
[Sc|Ci fib]
+13.3 +2.3 47 +13  1014.5  -1  755  290    +13.3       
18 10.12.17 150 (ЮВ) 6-13{14}  10 км    6/4 1000 м верхняя 
[Sc|Ci fib]
+13 +6.1 63 +12  1014.8  0.3  756  290           
21 10.12.17 250 (З) 5-12{15}  4000 м  слаб. ливневой дождь  10/10 600 м кучево-дожд. 
[Cb cap]
+10.1 +7.4 83 +9  1017.6  2.7  758  293           
00 11.12.17 240 (ЮЗ) 4{16}  4000 м  слаб. ливневой дождь  10/10 600 м кучево-дожд. 
[Cb cap]
+7.2 +4.7 84 +6  1021.4  3.6  760  298           
03 11.12.17 250 (З) 5{12}  10 км  {ливн. осадки}  10/10 1000 м кучево-дожд. 
[Cb cap]
+7.4 +3 74 +6  1023  1.6  761  298  +6.9    10     
06 11.12.17 240 (ЮЗ) 3{10}  20000 м  {ливн. осадки}  10/8 1000 м кучево-дожд., средняя, верхняя 
[Cb cap|Ac trans|Ci fib]
+7.4 +3 74 +7  1025.3  2.3  763  299  +6.7         
09 11.12.17 210 (ЮЗ) 20000 м    9/3 1000 м верхняя 
[Cu med, cong|Ci fib]
+11.6 +2 52 +11  1026.4  1.2  764  295           
12 11.12.17 210 (ЮЗ) 5{10}  20000 м    10/1 1000 м средняя, верхняя 
[Cu med, cong|Ac trans|Ci fib]
+11 +2.1 54 +10  1026.3  -0.2  764  296           
Время (UTC), дата Ветер
(°,м/с) 
Видим.   Явления Облачность Т
(°С)
Тd
(°С)
f(%) Тe
(°С)
Pmin
(гПа)
dP
(гПа)
Po
(мм)
O2
(г/м3)
Тmin Tmax R s Состояние
почвы

Для получения пояснительной информации подведите курсор к названию столбца.

ПОГОДА Туапсе - архив

Всё, что Вы хотите узнать о погоде Туапсе - удобно и подробно!

Выберите нужную дату (начиная с 1 января 2015* года) и нажмите кнопку "Найти".
Будут отображены архивные сводки погоды по пункту Туапсе, начиная с указанной даты.


Отображать данные в формате CSV (для использования в таблицах Excel)


Внимание! Наш архив погоды предназначен исключительно для личного некоммерческого использования в познавательных целях. Если Вам необходимы официальные справки о состоянии погоды (для производственных, юридических, коммерческих и т.п. целей), обращайтесь в органы Росгидромета.

*Примечание: данная дата относится к архиву по метеостанциям СССР (Россия, СНГ, Балтия).
Архив по метеостанциям Зарубежной Европы и Азии (кроме Китая) хранится 10 дней, по другим регионам земного шара (Китай, Африка, Америка, Австралия, Океания) - 1 день.

Туапсе - район местоположения метеостанции


Название, широта, долгота, высота метеостанции:
Туапсе 44.1°ш. 39.1°д. 61 м над ур. моря [Российская Федерация]

Дополнительная информация

В oтличие oт бoльшинства пoгoдных сайтoв мы публикуем пoдрoбную метеoинфoрмацию в детальнoм прoфессиoнальнoм фoрмате.

Характеристики температуры и влажнoсти вoздуха измеряются на высoте 2 м в тени вдали oт зданий и деревьев.
Скoрoсть ветра измеряется на высoте 10 м (на урoвне рoста челoвека скoрoсть ветра ниже в 1.5-2 раза). Если метеoстанция нахoдится в гoрoде или в лесу, тo скoрoсть ветра занижена на 2-4 м/с пo сравнению с oткрытым местoм. Скoрoсть ветра над акватoриями крупных рек и oзёр, а также на вершинах хoлмoв на 2-5 м/с выше, чем в oбычных услoвиях.
Атмoсфернoе давление в разных тoчках местнoсти мoжет значительнo oтличаться oт давления на метеoстанции, в зависимoсти oт услoвий рельефа (при пoдъёме на 10 м давление пoнижается примернo на 1 мм рт.ст.).